Location: An Tulaigh
(53.1928°N, 8.1647°W)
Time: 23:19:29
(UTC+00:00)

Cosmos 540 Rocket - Pass Details

Date: 15 May 2026
Orbit: 735 x 747 km, 74.1° (Epoch: 11 June)

Event Time Altitude Azimuth Distance (km) Brightness Sun altitude
Exits shadow 22:07:45 14° 167° (SSE) 1,999 5.1 -11.6°
Maximum altitude 22:11:42 38° 104° (ESE) 1,143 4.1 -11.9°
Drops below altitude 10° 22:16:25 10° 38° (NE) 2,274 6.2 -12.3°
Sets 22:18:54 0° 31° (NNE) 3,201 7.1 -12.5°
